Location: Newark
(34.6283°N, 36.0776°E)
Time: 15:53:32
(UTC+00:00)

A-11 Canister half - Pass Details

Date: 17 September 2019
Orbit: 1527 x 1682 km, 47.3° (Epoch: 15 October)

Event Time Altitude Azimuth Distance (km) Brightness Sun altitude
Rises 01:18:47 0° 219° (SW) 4,669 - -25.0°
Reaches altitude 10° 01:21:49 10° 217° (SW) 3,696 - -24.4°
Exits shadow 01:25:30 28° 210° (SSW) 2,596 9.8 -23.7°
Maximum altitude 01:31:01 66° 137° (SE) 1,679 9.2 -22.7°
Drops below altitude 10° 01:40:30 10° 58° (ENE) 3,806 12.2 -20.8°
Sets 01:43:40 0° 56° (NE) 4,814 13.0 -20.2°
